Weather in Arhangelsk

Russia / Arkhangel'skaya Oblast'     64°32′21″N   40°31′00″E
temp.,
°C
wind,
m/s
gust,
m/s
humid.,
%
clouds,
%
prec.,
mm/h
press.,
hPa
HPBL,
m
6 may, thu
thu600:00−1nne257686 0.0 1005169
03:00−2n1380100 0.0 1006112
06:000n11677 0.0 1007435
09:00+3nw124882 0.0 10071111
12:00+7nne1138100 0.0 10071410
15:00+8e2335100 0.0 10061620
18:00+8e463792 0.0 10041501
21:00+6e51144100 0.0 1002808
7 may, fri
fri700:00+3e71681100 1.4 998776
03:00+4e71683100 3.1 994763
06:00+6ssw4985100 1.8 995842
09:00+7s41079100 1.8 9971055
12:00+10ssw5106295 0.3 9991675
15:00+11ssw5105760 0.6 10001704
18:00+9sw4106481 0.2 10021434
21:00+5sw2780100 0.3 1004249
8 may, sat
sat800:00+5sw3669100 0.0 1006608
03:00+5ssw3768100 0.0 1008473
06:00+5sse2578100 0.0 1009337
09:00+8sse466487 0.0 10091097
12:00+10sse4755100 0.1 10091619
15:00+12se4752100 0.2 10081731
18:00+8se41185100 0.8 10071261
21:00+8sse51284100 1.6 10061137
9 may, sun
sun900:00+8ese41188100 0.1 1003535
03:00+8ese41284100 0.3 1000595
06:00+7e41192100 2.4 996576
09:00+8ese41195100 5.9 992692
12:00+9s4108252 1.9 992939
15:00+12ssw5964100 2.5 9921563
18:00+2w71595100 1.8 999996
21:00+5wsw7157469 2.6 10041501
10 may, mon
mon1000:00+4wsw614805 0.0 1008904
03:00+3sw413824 0.0 1011483
06:00+4sw5128434 0.2 1013730
09:00+7sw696831 0.2 1014938
12:00+11sw5855100 0.0 10161595
15:00+11sw5955100 0.4 10161712
18:00+8ssw51184100 0.3 10131246
21:00+8sw51488100 1.8 1012967